Regional Weather Roundup
Issued by NWS Albany, NY

Home | Current Version | Previous Version | Text Only | Print | Product List | Glossary On
Versions: 1 2 3 4 5 6 7 8 9 10 11 12 13 14 15 16 17 18 19 20 21 22 23 24 25 26 27 28 29 30 31 32 33 34 35 36 37 38 39 40 41 42 43 44 45 46 47 48 49 50
000
ASUS41 KALY 290510
RWRALY

NEW YORK STATE HOURLY WEATHER ROUNDUP
NATIONAL WEATHER SERVICE ALBANY NY
100 AM EDT WED JUL 29 2015

NOTE: "FAIR" INDICATES FEW OR NO CLOUDS BELOW 12,000 FEET WITH NO
SIGNIFICANT WEATHER AND/OR NO OBSTRUCTIONS TO VISIBILITY.

NYZ032-033-038>043-046>054-057>066-NYZ062>081-290600-
EAST


CITY           SKY/WX    TMP DP  RH WIND       PRES   REMARKS
ALBANY         PTCLDY    77  62  59 S6        29.97S
GLENS FALLS    PTCLDY    68  66  93 CALM      29.97S
POUGHKEEPSIE   CLEAR     71  68  90 CALM      29.98R
NEWBURGH       CLEAR     73  68  83 CALM      30.01R
MONTGOMERY     CLEAR     69  66  90 CALM      30.00R
WHITE PLAINS   CLEAR     73  69  87 CALM      29.99S
ISLIP          CLEAR     75  72  90 CALM      29.96S
NEW YORK CITY  CLEAR     82  70  66 SW9       29.97R
CENTRAL PARK   CLEAR     81  69  67 CALM      30.01R
$$

NYZ005>009-017-018-044>046-055-056-290600-
CENTRAL


CITY           SKY/WX    TMP DP  RH WIND       PRES   REMARKS
FULTON         PTCLDY    65  62  90 CALM      29.99F
SYRACUSE       PTCLDY    68  62  81 SE5       29.99F
ROME           PTCLDY    65  63  93 CALM      30.01F
ELMIRA         CLEAR     65  64  97 CALM      30.03S
BINGHAMTON     CLEAR     71  60  68 S3        30.06F
MONTICELLO     CLEAR     64  63  94 CALM      30.07R
$$

NYZ026>034-041>043-290600-
NORTH


CITY           SKY/WX    TMP DP  RH WIND       PRES   REMARKS
WATERTOWN      PTCLDY    68  59  73 CALM      29.97F
FORT DRUM      NOT AVBL
MASSENA        PTCLDY    72  63  73 SW8       29.96S
SARANAC LAKE   PTCLDY    60  59  96 CALM      30.03S
PLATTSBURGH    CLEAR     68  67  96 CALM      29.95R FOG
$$

NYZ001>004-010>016-019>021-290600-
WEST


CITY           SKY/WX    TMP DP  RH WIND       PRES   REMARKS
NIAGARA FALLS  MOCLDY    70  63  78 CALM      30.00R
BUFFALO        PTCLDY    72  62  71 SE6       30.01S
DUNKIRK        MOCLDY    66  60  81 SW3       30.01S
JAMESTOWN      MOCLDY    68  55  64 CALM      30.08S
WELLSVILLE     PTCLDY    69  63  81 CALM      30.11S
ROCHESTER      MOCLDY    72  66  81 SW3       30.01R
PENN YAN       PTCLDY    69  65  86 SW5       30.04S FOG
$$

             KEY
       WCI = WIND CHILL INDEX
       VSB = VISIBILITY
       HX  = HEAT INDEX
$$



USA.gov is the U.S. government's official web portal to all federal, state and local government web resources and services.